Time,TemperatureF,DewpointF,PressureIn,WindDirection,WindDirectionDegrees,WindSpeedMPH,WindSpeedGustMPH,Humidity,HourlyPrecipIn,Conditions,Clouds,dailyrainin,SoftwareType,DateUTC
2013-08-19 00:00:00,57.3,43.2,30.12,WNW,293,6.9,6.9,59,0.00,,,0.00,WUHU216HW,2013-08-19 06:00:00,
2013-08-19 00:05:00,57.3,43.2,30.12,WNW,293,6.9,6.9,59,0.00,,,0.00,WUHU216HW,2013-08-19 06:05:00,
2013-08-19 00:10:00,57.0,43.3,30.12,WNW,293,6.0,6.9,60,0.00,,,0.00,WUHU216HW,2013-08-19 06:10:00,
2013-08-19 00:15:00,56.8,43.1,30.12,WNW,293,6.7,6.7,60,0.00,,,0.00,WUHU216HW,2013-08-19 06:15:00,
2013-08-19 00:20:00,56.8,43.1,30.12,West,270,5.5,6.7,60,0.00,,,0.00,WUHU216HW,2013-08-19 06:20:00,
2013-08-19 00:25:00,56.4,43.1,30.12,West,270,2.6,6.4,61,0.00,,,0.00,WUHU216HW,2013-08-19 06:25:00,
2013-08-19 00:30:00,56.1,42.8,30.11,West,270,0.0,6.4,61,0.00,,,0.00,WUHU216HW,2013-08-19 06:30:00,
2013-08-19 00:35:00,55.9,42.6,30.11,WNW,293,5.3,5.3,61,0.00,,,0.00,WUHU216HW,2013-08-19 06:35:00,
2013-08-19 00:40:00,55.7,42.4,30.12,WNW,293,3.1,5.3,61,0.00,,,0.00,WUHU216HW,2013-08-19 06:40:00,
2013-08-19 00:45:00,55.5,42.7,30.12,WNW,293,5.8,5.8,62,0.00,,,0.00,WUHU216HW,2013-08-19 06:45:00,
2013-08-19 00:50:00,55.5,42.7,30.11,WNW,293,5.5,6.0,62,0.00,,,0.00,WUHU216HW,2013-08-19 06:50:00,
2013-08-19 00:55:00,55.5,42.7,30.12,WNW,293,6.9,7.3,62,0.00,,,0.00,WUHU216HW,2013-08-19 06:55:00,
2013-08-19 01:00:00,55.5,42.7,30.12,WNW,293,5.5,7.3,62,0.00,,,0.00,WUHU216HW,2013-08-19 07:00:00,
2013-08-19 01:15:00,54.6,42.6,30.12,WNW,293,6.9,6.9,64,0.00,,,0.00,WUHU216HW,2013-08-19 07:15:00,
2013-08-19 01:20:00,54.6,42.6,30.12,West,270,4.4,7.3,64,0.00,,,0.00,WUHU216HW,2013-08-19 07:20:00,
2013-08-19 01:25:00,54.6,42.6,30.12,West,270,6.0,7.3,64,0.00,,,0.00,WUHU216HW,2013-08-19 07:25:00,
2013-08-19 01:30:00,54.3,42.7,30.12,West,270,2.6,6.0,65,0.00,,,0.00,WUHU216HW,2013-08-19 07:30:00,
2013-08-19 01:35:00,54.1,42.1,30.12,WNW,293,7.1,7.1,64,0.00,,,0.00,WUHU216HW,2013-08-19 07:35:00,
2013-08-19 01:40:00,53.9,42.4,30.11,WNW,293,4.9,7.1,65,0.00,,,0.00,WUHU216HW,2013-08-19 07:40:00,
2013-08-19 01:45:00,53.9,42.4,30.11,WNW,293,2.0,7.1,65,0.00,,,0.00,WUHU216HW,2013-08-19 07:45:00,
2013-08-19 01:50:00,53.7,42.2,30.11,WNW,293,3.5,7.1,65,0.00,,,0.00,WUHU216HW,2013-08-19 07:50:00,
2013-08-19 01:55:00,53.4,42.2,30.11,West,270,4.2,4.2,66,0.00,,,0.00,WUHU216HW,2013-08-19 07:55:00,
2013-08-19 02:00:00,53.0,41.9,30.11,WNW,293,6.4,6.4,66,0.00,,,0.00,WUHU216HW,2013-08-19 08:00:00,
2013-08-19 02:09:00,52.1,41.9,30.12,West,270,3.1,6.4,68,0.00,,,0.00,WUHU216HW,2013-08-19 08:09:00,
2013-08-19 02:14:00,52.1,41.9,30.11,WNW,293,4.9,6.0,68,0.00,,,0.00,WUHU216HW,2013-08-19 08:14:00,
2013-08-19 02:19:00,51.9,42.3,30.11,West,270,3.3,6.4,69,0.00,,,0.00,WUHU216HW,2013-08-19 08:19:00,
2013-08-19 02:24:00,51.8,42.0,30.11,WNW,293,4.0,6.9,69,0.00,,,0.00,WUHU216HW,2013-08-19 08:24:00,
2013-08-19 02:29:00,51.6,41.8,30.11,WNW,293,6.9,6.9,69,0.00,,,0.00,WUHU216HW,2013-08-19 08:29:00,
2013-08-19 02:34:00,51.6,42.2,30.12,West,270,4.9,6.9,70,0.00,,,0.00,WUHU216HW,2013-08-19 08:34:00,
2013-08-19 02:39:00,51.6,41.8,30.12,WSW,248,0.0,4.9,69,0.00,,,0.00,WUHU216HW,2013-08-19 08:39:00,
2013-08-19 02:44:00,51.4,41.6,30.12,WSW,248,0.0,1.1,69,0.00,,,0.00,WUHU216HW,2013-08-19 08:44:00,
2013-08-19 02:49:00,51.0,41.7,30.12,West,270,0.0,0.0,70,0.00,,,0.00,WUHU216HW,2013-08-19 08:49:00,
2013-08-19 02:54:00,50.7,41.7,30.12,West,270,0.0,0.0,71,0.00,,,0.00,WUHU216HW,2013-08-19 08:54:00,
2013-08-19 02:59:00,50.5,41.8,30.12,West,270,0.0,3.5,72,0.00,,,0.00,WUHU216HW,2013-08-19 08:59:00,
2013-08-19 03:04:00,50.3,41.6,30.11,WNW,293,5.8,5.8,72,0.00,,,0.00,WUHU216HW,2013-08-19 09:04:00,
2013-08-19 03:09:00,50.1,41.8,30.11,WNW,293,1.5,5.8,73,0.00,,,0.00,WUHU216HW,2013-08-19 09:09:00,
2013-08-19 03:14:00,50.1,41.8,30.12,NNW,338,0.0,5.8,73,0.00,,,0.00,WUHU216HW,2013-08-19 09:14:00,
2013-08-19 03:19:00,50.1,41.8,30.12,West,270,0.0,1.5,73,0.00,,,0.00,WUHU216HW,2013-08-19 09:19:00,
2013-08-19 03:24:00,50.3,42.0,30.12,West,270,0.0,0.0,73,0.00,,,0.00,WUHU216HW,2013-08-19 09:24:00,
2013-08-19 03:29:00,50.3,42.0,30.12,West,270,2.0,2.0,73,0.00,,,0.00,WUHU216HW,2013-08-19 09:29:00,
2013-08-19 03:34:00,50.1,41.8,30.12,WNW,293,4.6,4.6,73,0.00,,,0.00,WUHU216HW,2013-08-19 09:34:00,
2013-08-19 03:39:00,49.8,41.8,30.12,WNW,293,3.1,4.6,74,0.00,,,0.00,WUHU216HW,2013-08-19 09:39:00,
2013-08-19 03:44:00,49.8,41.8,30.12,WSW,248,0.0,4.6,74,0.00,,,0.00,WUHU216HW,2013-08-19 09:44:00,
2013-08-19 03:49:00,49.8,41.8,30.12,WSW,248,0.0,3.1,74,0.00,,,0.00,WUHU216HW,2013-08-19 09:49:00,
2013-08-19 03:54:00,49.6,41.6,30.12,WSW,248,0.0,0.0,74,0.00,,,0.00,WUHU216HW,2013-08-19 09:54:00,
2013-08-19 03:59:00,49.6,41.6,30.12,WSW,248,0.0,0.0,74,0.00,,,0.00,WUHU216HW,2013-08-19 09:59:00,
2013-08-19 04:04:00,49.2,41.2,30.12,West,270,0.0,0.0,73,0.00,,,0.00,WUHU216HW,2013-08-19 10:04:00,
2013-08-19 04:09:00,49.2,41.2,30.12,West,270,0.0,0.0,74,0.00,,,0.00,WUHU216HW,2013-08-19 10:09:00,
2013-08-19 04:14:00,49.1,41.4,30.12,West,270,0.0,0.0,75,0.00,,,0.00,WUHU216HW,2013-08-19 10:14:00,
2013-08-19 04:19:00,48.9,40.9,30.12,West,270,0.0,0.0,74,0.00,,,0.00,WUHU216HW,2013-08-19 10:19:00,
2013-08-19 04:24:00,48.9,41.2,30.12,West,270,0.0,0.0,75,0.00,,,0.00,WUHU216HW,2013-08-19 10:24:00,
2013-08-19 04:29:00,48.9,41.2,30.12,West,270,0.0,0.0,75,0.00,,,0.00,WUHU216HW,2013-08-19 10:29:00,
2013-08-19 04:34:00,48.7,41.0,30.12,SW,225,0.0,0.0,75,0.00,,,0.00,WUHU216HW,2013-08-19 10:34:00,
2013-08-19 04:39:00,48.7,40.7,30.12,SW,225,0.0,0.0,74,0.00,,,0.00,WUHU216HW,2013-08-19 10:39:00,
2013-08-19 04:44:00,48.7,40.7,30.12,WSW,248,0.0,0.0,74,0.00,,,0.00,WUHU216HW,2013-08-19 10:44:00,
2013-08-19 04:49:00,48.7,41.0,30.12,WSW,248,0.0,0.0,75,0.00,,,0.00,WUHU216HW,2013-08-19 10:49:00,
2013-08-19 04:54:00,48.7,41.0,30.12,West,270,0.0,0.0,75,0.00,,,0.00,WUHU216HW,2013-08-19 10:54:00,
2013-08-19 04:59:00,48.7,41.0,30.12,West,270,0.0,0.0,75,0.00,,,0.00,WUHU216HW,2013-08-19 10:59:00,
2013-08-19 05:04:00,48.3,40.9,30.12,West,270,0.0,0.0,75,0.00,,,0.00,WUHU216HW,2013-08-19 11:04:00,
2013-08-19 05:09:00,48.3,41.0,30.12,West,270,0.0,0.0,76,0.00,,,0.00,WUHU216HW,2013-08-19 11:09:00,
2013-08-19 05:14:00,48.3,41.0,30.12,WNW,293,0.0,0.0,76,0.00,,,0.00,WUHU216HW,2013-08-19 11:14:00,
2013-08-19 05:19:00,48.3,41.0,30.12,WNW,293,0.0,0.0,76,0.00,,,0.00,WUHU216HW,2013-08-19 11:19:00,
2013-08-19 05:24:00,48.2,40.8,30.12,WNW,293,0.0,2.2,76,0.00,,,0.00,WUHU216HW,2013-08-19 11:24:00,
2013-08-19 05:29:00,48.2,40.8,30.12,West,270,0.6,2.2,76,0.00,,,0.00,WUHU216HW,2013-08-19 11:29:00,
2013-08-19 05:34:00,48.0,40.7,30.12,West,270,0.0,2.2,76,0.00,,,0.00,WUHU216HW,2013-08-19 11:34:00,
2013-08-19 05:39:00,47.8,40.9,30.12,WNW,293,2.2,5.3,77,0.00,,,0.00,WUHU216HW,2013-08-19 11:39:00,
2013-08-19 05:44:00,47.8,40.9,30.12,West,270,0.0,5.3,77,0.00,,,0.00,WUHU216HW,2013-08-19 11:44:00,
2013-08-19 05:49:00,47.4,40.5,30.12,West,270,0.0,2.2,77,0.00,,,0.00,WUHU216HW,2013-08-19 11:49:00,
2013-08-19 05:54:00,47.3,40.4,30.12,WNW,293,6.2,6.2,77,0.00,,,0.00,WUHU216HW,2013-08-19 11:54:00,
2013-08-19 05:59:00,47.1,40.2,30.12,WSW,248,3.3,6.2,77,0.00,,,0.00,WUHU216HW,2013-08-19 11:59:00,
2013-08-19 06:04:00,47.1,40.6,30.12,WSW,248,1.1,6.2,78,0.00,,,0.00,WUHU216HW,2013-08-19 12:04:00,
2013-08-19 06:09:00,46.9,40.4,30.12,WSW,248,0.0,2.4,78,0.00,,,0.00,WUHU216HW,2013-08-19 12:09:00,
2013-08-19 06:14:00,46.7,40.2,30.12,West,270,0.0,1.5,78,0.00,,,0.00,WUHU216HW,2013-08-19 12:14:00,
2013-08-19 06:19:00,46.5,40.1,30.12,West,270,0.0,0.0,78,0.00,,,0.00,WUHU216HW,2013-08-19 12:19:00,
2013-08-19 06:24:00,46.5,40.4,30.12,West,270,0.0,0.0,79,0.00,,,0.00,WUHU216HW,2013-08-19 12:24:00,
2013-08-19 06:29:00,46.5,40.4,30.12,West,270,0.8,0.8,79,0.00,,,0.00,WUHU216HW,2013-08-19 12:29:00,
2013-08-19 06:34:00,46.4,40.1,30.12,West,270,0.0,0.8,79,0.00,,,0.00,WUHU216HW,2013-08-19 12:34:00,
2013-08-19 06:39:00,46.2,40.4,30.13,West,270,0.0,0.0,80,0.00,,,0.00,WUHU216HW,2013-08-19 12:39:00,
2013-08-19 06:44:00,46.2,40.4,30.12,West,270,0.0,0.0,80,0.00,,,0.00,WUHU216HW,2013-08-19 12:44:00,
2013-08-19 06:49:00,46.2,40.4,30.13,WNW,293,2.4,4.6,80,0.00,,,0.00,WUHU216HW,2013-08-19 12:49:00,
2013-08-19 06:54:00,46.5,40.8,30.13,WNW,293,4.0,4.6,80,0.00,,,0.00,WUHU216HW,2013-08-19 12:54:00,
2013-08-19 06:59:00,46.9,41.1,30.13,West,270,0.6,4.6,80,0.00,,,0.00,WUHU216HW,2013-08-19 12:59:00,
2013-08-19 07:04:00,47.8,41.6,30.13,WNW,293,4.0,4.0,80,0.00,,,0.00,WUHU216HW,2013-08-19 13:04:00,
2013-08-19 07:09:00,48.0,41.7,30.13,WNW,293,7.1,7.1,79,0.00,,,0.00,WUHU216HW,2013-08-19 13:09:00,
2013-08-19 07:14:00,48.5,41.9,30.13,WNW,293,5.3,7.1,78,0.00,,,0.00,WUHU216HW,2013-08-19 13:14:00,
2013-08-19 07:19:00,48.7,41.7,30.13,West,270,0.0,7.1,77,0.00,,,0.00,WUHU216HW,2013-08-19 13:19:00,
2013-08-19 07:24:00,48.7,41.7,30.13,West,270,2.0,5.3,77,0.00,,,0.00,WUHU216HW,2013-08-19 13:24:00,
2013-08-19 07:29:00,49.1,42.4,30.13,WNW,293,0.0,2.6,78,0.00,,,0.00,WUHU216HW,2013-08-19 13:29:00,
2013-08-19 07:34:00,49.2,42.6,30.13,West,270,2.9,2.9,78,0.00,,,0.00,WUHU216HW,2013-08-19 13:34:00,
2013-08-19 07:39:00,49.6,42.6,30.13,West,270,0.0,4.4,77,0.00,,,0.00,WUHU216HW,2013-08-19 13:39:00,
2013-08-19 07:44:00,49.8,42.8,30.13,WNW,293,3.5,4.4,77,0.00,,,0.00,WUHU216HW,2013-08-19 13:44:00,
2013-08-19 07:49:00,50.3,43.7,30.13,WNW,293,3.8,4.4,78,0.00,,,0.00,WUHU216HW,2013-08-19 13:49:00,
2013-08-19 07:54:00,50.7,44.1,30.13,West,270,0.0,4.4,77,0.00,,,0.00,WUHU216HW,2013-08-19 13:54:00,
2013-08-19 07:59:00,51.6,44.6,30.13,West,270,0.0,2.0,77,0.00,,,0.00,WUHU216HW,2013-08-19 13:59:00,
2013-08-19 08:05:00,51.9,44.6,30.13,WSW,248,0.0,0.0,76,0.00,,,0.00,WUHU216HW,2013-08-19 14:05:00,
2013-08-19 08:10:00,52.3,44.9,30.13,WSW,248,0.0,0.0,76,0.00,,,0.00,WUHU216HW,2013-08-19 14:10:00,
2013-08-19 08:15:00,52.7,45.3,30.12,WSW,248,0.0,0.0,76,0.00,,,0.00,WUHU216HW,2013-08-19 14:15:00,
2013-08-19 08:20:00,53.2,45.8,30.12,WSW,248,0.0,0.0,76,0.00,,,0.00,WUHU216HW,2013-08-19 14:20:00,
2013-08-19 08:25:00,53.7,46.0,30.12,WSW,248,0.0,0.0,75,0.00,,,0.00,WUHU216HW,2013-08-19 14:25:00,
2013-08-19 08:30:00,54.3,46.5,30.13,WSW,248,0.0,0.0,75,0.00,,,0.00,WUHU216HW,2013-08-19 14:30:00,
2013-08-19 08:35:00,54.8,47.0,30.13,South,180,0.0,0.0,75,0.00,,,0.00,WUHU216HW,2013-08-19 14:35:00,
2013-08-19 08:40:00,55.5,48.0,30.13,SE,135,0.0,0.0,76,0.00,,,0.00,WUHU216HW,2013-08-19 14:40:00,
2013-08-19 08:45:00,56.1,48.2,30.12,SE,135,0.0,0.0,75,0.00,,,0.00,WUHU216HW,2013-08-19 14:45:00,
2013-08-19 08:50:00,56.8,48.5,30.12,SE,135,0.0,0.0,74,0.00,,,0.00,WUHU216HW,2013-08-19 14:50:00,
2013-08-19 08:55:00,57.7,49.1,30.12,SE,135,0.0,0.0,73,0.00,,,0.00,WUHU216HW,2013-08-19 14:55:00,
2013-08-19 09:00:00,58.2,49.2,30.12,SE,135,0.0,0.0,72,0.00,,,0.00,WUHU216HW,2013-08-19 15:00:00,
2013-08-19 09:05:00,58.8,48.6,30.12,ESE,113,0.0,0.0,69,0.00,,,0.00,WUHU216HW,2013-08-19 15:05:00,
2013-08-19 09:10:00,59.9,48.9,30.12,ESE,113,0.0,0.0,67,0.00,,,0.00,WUHU216HW,2013-08-19 15:10:00,
2013-08-19 09:15:00,60.4,49.0,30.12,ENE,68,0.0,0.0,66,0.00,,,0.00,WUHU216HW,2013-08-19 15:15:00,
2013-08-19 09:20:00,60.8,48.5,30.11,SE,135,0.0,0.0,64,0.00,,,0.00,WUHU216HW,2013-08-19 15:20:00,
2013-08-19 09:25:00,61.7,49.4,30.11,ESE,113,0.0,0.0,64,0.00,,,0.00,WUHU216HW,2013-08-19 15:25:00,
2013-08-19 09:30:00,62.2,49.8,30.11,ESE,113,0.0,0.0,64,0.00,,,0.00,WUHU216HW,2013-08-19 15:30:00,
2013-08-19 09:35:00,62.7,49.9,30.11,SE,135,0.0,0.0,63,0.00,,,0.00,WUHU216HW,2013-08-19 15:35:00,
2013-08-19 09:40:00,63.5,50.2,30.11,NE,45,4.9,4.9,62,0.00,,,0.00,WUHU216HW,2013-08-19 15:40:00,
2013-08-19 09:45:00,64.2,50.0,30.11,NE,45,2.0,4.9,60,0.00,,,0.00,WUHU216HW,2013-08-19 15:45:00,
2013-08-19 09:50:00,65.1,50.4,30.11,ENE,68,3.8,3.8,59,0.00,,,0.00,WUHU216HW,2013-08-19 15:50:00,
2013-08-19 09:55:00,65.8,50.1,30.10,ENE,68,0.0,3.8,57,0.00,,,0.00,WUHU216HW,2013-08-19 15:55:00,
2013-08-19 10:00:00,66.3,50.5,30.10,ENE,68,3.3,3.8,57,0.00,,,0.00,WUHU216HW,2013-08-19 16:00:00,
2013-08-19 10:05:00,67.2,51.0,30.10,ENE,68,6.4,6.4,56,0.00,,,0.00,WUHU216HW,2013-08-19 16:05:00,
2013-08-19 10:10:00,67.8,51.0,30.10,ESE,113,4.4,6.7,55,0.00,,,0.00,WUHU216HW,2013-08-19 16:10:00,
2013-08-19 10:15:00,68.5,51.1,30.10,ENE,68,0.0,6.7,54,0.00,,,0.00,WUHU216HW,2013-08-19 16:15:00,
2013-08-19 10:20:00,68.9,51.5,30.10,East,90,0.0,2.0,54,0.00,,,0.00,WUHU216HW,2013-08-19 16:20:00,
2013-08-19 10:25:00,69.2,51.3,30.09,ESE,113,0.0,3.8,53,0.00,,,0.00,WUHU216HW,2013-08-19 16:25:00,
2013-08-19 10:30:00,69.6,51.1,30.09,ENE,68,6.2,6.2,52,0.00,,,0.00,WUHU216HW,2013-08-19 16:30:00,
2013-08-19 10:35:00,70.1,51.6,30.09,SSE,158,0.0,6.2,52,0.00,,,0.00,WUHU216HW,2013-08-19 16:35:00,
2013-08-19 10:40:00,70.5,51.5,30.09,ESE,113,0.0,6.2,51,0.00,,,0.00,WUHU216HW,2013-08-19 16:40:00,
2013-08-19 10:45:00,71.2,51.6,30.09,SSW,203,0.0,0.0,50,0.00,,,0.00,WUHU216HW,2013-08-19 16:45:00,
2013-08-19 10:50:00,71.4,50.6,30.09,SSW,203,0.0,0.0,48,0.00,,,0.00,WUHU216HW,2013-08-19 16:50:00,
2013-08-19 10:55:00,72.1,50.0,30.09,West,270,2.4,2.4,46,0.00,,,0.00,WUHU216HW,2013-08-19 16:55:00,
2013-08-19 11:00:00,73.2,48.6,30.09,South,180,5.3,5.3,42,0.00,,,0.00,WUHU216HW,2013-08-19 17:00:00,
2013-08-19 11:05:00,73.9,49.9,30.09,West,270,0.0,8.0,43,0.00,,,0.00,WUHU216HW,2013-08-19 17:05:00,
2013-08-19 11:10:00,74.3,50.2,30.09,West,270,0.0,8.0,43,0.00,,,0.00,WUHU216HW,2013-08-19 17:10:00,
2013-08-19 11:15:00,74.8,50.1,30.08,WNW,293,4.0,12.9,42,0.00,,,0.00,WUHU216HW,2013-08-19 17:15:00,
2013-08-19 11:20:00,75.0,50.9,30.08,South,180,10.2,12.9,43,0.00,,,0.00,WUHU216HW,2013-08-19 17:20:00,
2013-08-19 11:25:00,75.0,49.7,30.08,WSW,248,5.3,10.2,41,0.00,,,0.00,WUHU216HW,2013-08-19 17:25:00,
2013-08-19 11:30:00,75.3,50.6,30.08,SW,225,0.0,12.9,42,0.00,,,0.00,WUHU216HW,2013-08-19 17:30:00,
2013-08-19 11:35:00,75.7,49.7,30.08,West,270,1.7,16.3,40,0.00,,,0.00,WUHU216HW,2013-08-19 17:35:00,
2013-08-19 11:40:00,75.9,49.9,30.07,South,180,5.1,16.3,40,0.00,,,0.00,WUHU216HW,2013-08-19 17:40:00,
2013-08-19 11:45:00,76.1,49.3,30.08,SSW,203,4.6,13.4,39,0.00,,,0.00,WUHU216HW,2013-08-19 17:45:00,
2013-08-19 11:50:00,76.4,49.6,30.08,West,270,17.6,17.6,39,0.00,,,0.00,WUHU216HW,2013-08-19 17:50:00,
2013-08-19 11:55:00,76.6,51.1,30.08,WSW,248,0.0,17.6,41,0.00,,,0.00,WUHU216HW,2013-08-19 17:55:00,
2013-08-19 12:00:00,76.8,50.7,30.07,SW,225,4.2,17.6,40,0.00,,,0.00,WUHU216HW,2013-08-19 18:00:00,
2013-08-19 12:05:00,76.8,51.3,30.08,SW,225,2.9,10.9,41,0.00,,,0.00,WUHU216HW,2013-08-19 18:05:00,
2013-08-19 12:10:00,77.1,50.2,30.08,NE,45,0.0,11.4,39,0.00,,,0.00,WUHU216HW,2013-08-19 18:10:00,
2013-08-19 12:15:00,77.5,51.9,30.07,SSE,158,10.2,11.4,41,0.00,,,0.00,WUHU216HW,2013-08-19 18:15:00,
2013-08-19 12:20:00,77.5,51.3,30.07,WSW,248,7.8,10.2,40,0.00,,,0.00,WUHU216HW,2013-08-19 18:20:00,
2013-08-19 12:25:00,77.7,51.5,30.07,SW,225,3.5,10.9,40,0.00,,,0.00,WUHU216HW,2013-08-19 18:25:00,
2013-08-19 12:30:00,78.2,50.4,30.08,WSW,248,6.4,18.5,38,0.00,,,0.00,WUHU216HW,2013-08-19 18:30:00,
2013-08-19 12:35:00,78.4,51.4,30.07,West,270,4.2,18.5,39,0.00,,,0.00,WUHU216HW,2013-08-19 18:35:00,
2013-08-19 12:40:00,78.4,50.6,30.07,SW,225,3.1,9.6,38,0.00,,,0.00,WUHU216HW,2013-08-19 18:40:00,
2013-08-19 12:45:00,78.6,50.0,30.07,SSW,203,1.7,9.6,36,0.00,,,0.00,WUHU216HW,2013-08-19 18:45:00,
2013-08-19 12:50:00,78.6,49.2,30.07,SW,225,5.5,14.0,36,0.00,,,0.00,WUHU216HW,2013-08-19 18:50:00,
2013-08-19 12:55:00,78.6,50.0,30.07,South,180,1.1,14.0,37,0.00,,,0.00,WUHU216HW,2013-08-19 18:55:00,
2013-08-19 13:00:00,78.9,49.5,30.07,SW,225,7.6,13.4,36,0.00,,,0.00,WUHU216HW,2013-08-19 19:00:00,
2013-08-19 13:05:00,79.1,48.2,30.07,West,270,0.0,7.6,34,0.00,,,0.00,WUHU216HW,2013-08-19 19:05:00,
2013-08-19 13:10:00,79.1,48.9,30.07,SSW,203,15.2,21.4,35,0.00,,,0.00,WUHU216HW,2013-08-19 19:10:00,
2013-08-19 13:15:00,79.3,49.1,30.07,WSW,248,0.0,21.4,35,0.00,,,0.00,WUHU216HW,2013-08-19 19:15:00,
2013-08-19 13:20:00,79.3,48.3,30.07,South,180,0.0,15.2,34,0.00,,,0.00,WUHU216HW,2013-08-19 19:20:00,
2013-08-19 13:25:00,79.1,48.2,30.06,WSW,248,10.0,15.2,34,0.00,,,0.00,WUHU216HW,2013-08-19 19:25:00,
2013-08-19 13:30:00,79.3,49.1,30.06,NW,315,12.5,18.1,35,0.00,,,0.00,WUHU216HW,2013-08-19 19:30:00,
2013-08-19 13:35:00,79.5,46.9,30.06,West,270,6.4,18.1,32,0.00,,,0.00,WUHU216HW,2013-08-19 19:35:00,
2013-08-19 13:40:00,79.5,46.9,30.06,SSW,203,11.4,16.5,32,0.00,,,0.00,WUHU216HW,2013-08-19 19:40:00,
2013-08-19 13:45:00,79.5,46.9,30.05,SSW,203,7.8,16.5,32,0.00,,,0.00,WUHU216HW,2013-08-19 19:45:00,
2013-08-19 13:50:00,79.8,46.5,30.06,WSW,248,11.4,11.4,31,0.00,,,0.00,WUHU216HW,2013-08-19 19:50:00,
2013-08-19 13:55:00,79.8,47.3,30.05,North,0,0.0,11.6,32,0.00,,,0.00,WUHU216HW,2013-08-19 19:55:00,
2013-08-19 14:00:00,79.8,46.5,30.06,NNE,23,2.0,11.6,31,0.00,,,0.00,WUHU216HW,2013-08-19 20:00:00,
2013-08-19 14:05:00,79.8,47.3,30.05,WNW,293,7.8,18.1,32,0.00,,,0.00,WUHU216HW,2013-08-19 20:05:00,
2013-08-19 14:10:00,79.8,46.5,30.05,WSW,248,3.3,18.1,31,0.00,,,0.00,WUHU216HW,2013-08-19 20:10:00,
2013-08-19 14:15:00,80.0,47.4,30.05,SW,225,7.1,7.8,32,0.00,,,0.00,WUHU216HW,2013-08-19 20:15:00,
2013-08-19 14:20:00,80.2,47.6,30.05,WSW,248,7.3,17.0,32,0.00,,,0.00,WUHU216HW,2013-08-19 20:20:00,
2013-08-19 14:25:00,80.2,49.1,30.05,WSW,248,2.2,17.0,34,0.00,,,0.00,WUHU216HW,2013-08-19 20:25:00,
2013-08-19 14:30:00,80.4,48.5,30.05,WSW,248,0.0,7.3,33,0.00,,,0.00,WUHU216HW,2013-08-19 20:30:00,
2013-08-19 14:35:00,80.4,49.3,30.05,WSW,248,7.1,7.1,34,0.00,,,0.00,WUHU216HW,2013-08-19 20:35:00,
2013-08-19 14:41:00,80.7,49.6,30.04,WSW,248,6.0,7.1,34,0.00,,,0.00,WUHU216HW,2013-08-19 20:41:00,
2013-08-19 14:46:00,80.7,49.6,30.05,ENE,68,2.6,11.4,34,0.00,,,0.00,WUHU216HW,2013-08-19 20:46:00,
2013-08-19 14:51:00,80.9,49.7,30.04,WSW,248,0.0,11.4,34,0.00,,,0.00,WUHU216HW,2013-08-19 20:51:00,
2013-08-19 14:56:00,80.9,48.2,30.04,WSW,248,4.0,12.9,32,0.00,,,0.00,WUHU216HW,2013-08-19 20:56:00,
2013-08-19 15:01:00,80.9,49.7,30.04,WSW,248,0.0,12.9,34,0.00,,,0.00,WUHU216HW,2013-08-19 21:01:00,
2013-08-19 15:06:00,80.9,48.2,30.04,WSW,248,0.0,9.1,32,0.00,,,0.00,WUHU216HW,2013-08-19 21:06:00,
2013-08-19 15:11:00,80.9,49.7,30.04,WSW,248,7.8,9.1,34,0.00,,,0.00,WUHU216HW,2013-08-19 21:11:00,
2013-08-19 15:16:00,81.1,50.7,30.04,WSW,248,7.8,7.8,35,0.00,,,0.00,WUHU216HW,2013-08-19 21:16:00,
2013-08-19 15:21:00,81.1,47.6,30.05,WSW,248,5.1,7.8,31,0.00,,,0.00,WUHU216HW,2013-08-19 21:21:00,
2013-08-19 15:26:00,81.1,48.3,30.04,WSW,248,5.1,8.7,32,0.00,,,0.00,WUHU216HW,2013-08-19 21:26:00,
2013-08-19 15:31:00,80.9,48.2,30.04,WSW,248,6.4,8.7,32,0.00,,,0.00,WUHU216HW,2013-08-19 21:31:00,
2013-08-19 15:36:00,81.1,49.9,30.04,WSW,248,3.3,8.2,34,0.00,,,0.00,WUHU216HW,2013-08-19 21:36:00,
2013-08-19 15:41:00,81.1,50.7,30.04,WSW,248,5.3,8.2,35,0.00,,,0.00,WUHU216HW,2013-08-19 21:41:00,
2013-08-19 15:46:00,81.3,50.0,30.04,WSW,248,20.8,20.8,34,0.00,,,0.00,WUHU216HW,2013-08-19 21:46:00,
2013-08-19 15:51:00,81.1,47.6,30.04,WSW,248,2.6,20.8,31,0.00,,,0.00,WUHU216HW,2013-08-19 21:51:00,
2013-08-19 15:56:00,80.9,49.7,30.03,WSW,248,4.6,20.8,34,0.00,,,0.00,WUHU216HW,2013-08-19 21:56:00,
2013-08-19 16:01:00,80.9,48.2,30.03,WSW,248,4.2,6.9,32,0.00,,,0.00,WUHU216HW,2013-08-19 22:01:00,
2013-08-19 16:06:00,80.9,49.7,30.03,WSW,248,11.8,11.8,34,0.00,,,0.00,WUHU216HW,2013-08-19 22:06:00,
2013-08-19 16:11:00,81.1,49.9,30.03,WSW,248,2.4,11.8,34,0.00,,,0.00,WUHU216HW,2013-08-19 22:11:00,
2013-08-19 16:16:00,81.1,49.9,30.04,WSW,248,13.1,13.1,34,0.00,,,0.00,WUHU216HW,2013-08-19 22:16:00,
2013-08-19 16:21:00,81.1,48.3,30.03,WSW,248,2.6,13.1,32,0.00,,,0.00,WUHU216HW,2013-08-19 22:21:00,
2013-08-19 16:26:00,80.9,49.7,30.03,WSW,248,8.7,14.0,34,0.00,,,0.00,WUHU216HW,2013-08-19 22:26:00,
2013-08-19 16:31:00,81.1,48.3,30.03,WSW,248,14.0,16.3,32,0.00,,,0.00,WUHU216HW,2013-08-19 22:31:00,
2013-08-19 16:36:00,81.1,48.3,30.02,WSW,248,8.2,16.3,32,0.00,,,0.00,WUHU216HW,2013-08-19 22:36:00,
2013-08-19 16:41:00,80.9,49.7,30.02,WSW,248,6.2,14.0,34,0.00,,,0.00,WUHU216HW,2013-08-19 22:41:00,
2013-08-19 16:46:00,80.9,49.7,30.02,WSW,248,7.6,8.2,34,0.00,,,0.00,WUHU216HW,2013-08-19 22:46:00,
2013-08-19 16:51:00,81.1,48.3,30.02,WSW,248,14.5,14.5,32,0.00,,,0.00,WUHU216HW,2013-08-19 22:51:00,
2013-08-19 16:56:00,80.9,49.0,30.02,WSW,248,0.0,14.5,33,0.00,,,0.00,WUHU216HW,2013-08-19 22:56:00,
2013-08-19 17:01:00,81.1,48.3,30.02,WSW,248,16.1,16.1,32,0.00,,,0.00,WUHU216HW,2013-08-19 23:01:00,
2013-08-19 17:06:00,80.9,49.7,30.02,WSW,248,8.2,16.1,34,0.00,,,0.00,WUHU216HW,2013-08-19 23:06:00,
2013-08-19 17:11:00,80.9,49.0,30.02,WSW,248,14.9,16.1,33,0.00,,,0.00,WUHU216HW,2013-08-19 23:11:00,
2013-08-19 17:16:00,80.9,49.0,30.02,WSW,248,1.5,19.0,33,0.00,,,0.00,WUHU216HW,2013-08-19 23:16:00,
2013-08-19 17:21:00,80.7,49.6,30.02,WSW,248,0.8,19.0,34,0.00,,,0.00,WUHU216HW,2013-08-19 23:21:00,
2013-08-19 17:26:00,80.7,50.4,30.02,WSW,248,11.4,11.4,35,0.00,,,0.00,WUHU216HW,2013-08-19 23:26:00,
2013-08-19 17:31:00,80.6,49.4,30.02,WSW,248,0.6,11.4,34,0.00,,,0.00,WUHU216HW,2013-08-19 23:31:00,
2013-08-19 17:36:00,80.4,50.1,30.02,WSW,248,2.4,13.1,35,0.00,,,0.00,WUHU216HW,2013-08-19 23:36:00,
2013-08-19 17:41:00,80.4,49.3,30.02,WSW,248,7.1,13.8,34,0.00,,,0.00,WUHU216HW,2013-08-19 23:41:00,
2013-08-19 17:46:00,80.6,49.4,30.02,WSW,248,6.0,13.8,34,0.00,,,0.00,WUHU216HW,2013-08-19 23:46:00,
2013-08-19 17:51:00,80.4,50.1,30.02,SSW,203,9.3,9.3,35,0.00,,,0.00,WUHU216HW,2013-08-19 23:51:00,
2013-08-19 17:56:00,80.4,49.3,30.02,WSW,248,9.1,9.3,34,0.00,,,0.00,WUHU216HW,2013-08-19 23:56:00,
2013-08-19 18:01:00,80.4,50.1,30.02,WSW,248,3.8,13.1,35,0.00,,,0.00,WUHU216HW,2013-08-20 00:01:00,
2013-08-19 18:06:00,80.4,50.1,30.02,SSW,203,7.3,13.1,35,0.00,,,0.00,WUHU216HW,2013-08-20 00:06:00,
2013-08-19 18:11:00,80.4,50.1,30.02,SW,225,5.5,7.3,35,0.00,,,0.00,WUHU216HW,2013-08-20 00:11:00,
2013-08-19 18:16:00,80.2,49.9,30.02,WNW,293,0.0,8.9,35,0.00,,,0.00,WUHU216HW,2013-08-20 00:16:00,
2013-08-19 18:21:00,80.0,49.7,30.02,South,180,6.9,10.9,35,0.00,,,0.00,WUHU216HW,2013-08-20 00:21:00,
2013-08-19 18:26:00,79.8,49.6,30.02,SW,225,2.6,10.9,35,0.00,,,0.00,WUHU216HW,2013-08-20 00:26:00,
2013-08-19 18:31:00,79.7,49.4,30.02,SSW,203,11.4,11.4,35,0.00,,,0.00,WUHU216HW,2013-08-20 00:31:00,
2013-08-19 18:36:00,79.3,49.1,30.02,WSW,248,6.9,11.4,35,0.00,,,0.00,WUHU216HW,2013-08-20 00:36:00,
2013-08-19 18:41:00,79.1,49.7,30.02,WSW,248,6.7,11.4,36,0.00,,,0.00,WUHU216HW,2013-08-20 00:41:00,
2013-08-19 18:46:00,79.3,49.1,30.01,WSW,248,11.6,11.6,35,0.00,,,0.00,WUHU216HW,2013-08-20 00:46:00,
2013-08-19 18:51:00,79.1,49.7,30.02,WSW,248,8.0,11.6,36,0.00,,,0.00,WUHU216HW,2013-08-20 00:51:00,
2013-08-19 18:56:00,78.9,48.8,30.02,WSW,248,6.0,8.2,35,0.00,,,0.00,WUHU216HW,2013-08-20 00:56:00,
2013-08-19 19:01:00,78.6,49.2,30.02,WSW,248,12.9,12.9,36,0.00,,,0.00,WUHU216HW,2013-08-20 01:01:00,
2013-08-19 19:06:00,78.6,49.2,30.02,WSW,248,7.3,12.9,36,0.00,,,0.00,WUHU216HW,2013-08-20 01:06:00,
2013-08-19 19:11:00,78.2,48.9,30.02,WSW,248,2.4,7.3,36,0.00,,,0.00,WUHU216HW,2013-08-20 01:11:00,
2013-08-19 19:16:00,78.0,49.5,30.02,West,270,6.7,7.3,37,0.00,,,0.00,WUHU216HW,2013-08-20 01:16:00,
2013-08-19 19:21:00,77.7,49.2,30.02,SW,225,12.3,12.3,37,0.00,,,0.00,WUHU216HW,2013-08-20 01:21:00,
2013-08-19 19:26:00,77.5,49.1,30.02,WSW,248,8.7,12.3,37,0.00,,,0.00,WUHU216HW,2013-08-20 01:26:00,
2013-08-19 19:31:00,77.3,48.9,30.02,South,180,0.0,8.7,37,0.00,,,0.00,WUHU216HW,2013-08-20 01:31:00,
2013-08-19 19:36:00,77.1,48.7,30.02,WNW,293,0.0,8.7,37,0.00,,,0.00,WUHU216HW,2013-08-20 01:36:00,
2013-08-19 19:41:00,76.8,48.4,30.02,SSW,203,6.0,6.0,37,0.00,,,0.00,WUHU216HW,2013-08-20 01:41:00,
2013-08-19 19:46:00,76.4,48.1,30.02,SW,225,5.8,6.0,37,0.00,,,0.00,WUHU216HW,2013-08-20 01:46:00,
2013-08-19 19:51:00,76.2,48.7,30.02,NW,315,0.0,6.0,38,0.00,,,0.00,WUHU216HW,2013-08-20 01:51:00,
2013-08-19 19:56:00,75.9,48.4,30.02,SW,225,2.4,8.5,38,0.00,,,0.00,WUHU216HW,2013-08-20 01:56:00,
2013-08-19 20:01:00,75.7,48.2,30.02,WSW,248,2.2,8.5,38,0.00,,,0.00,WUHU216HW,2013-08-20 02:01:00,
2013-08-19 20:06:00,75.5,48.0,30.03,SE,135,0.0,7.1,38,0.00,,,0.00,WUHU216HW,2013-08-20 02:06:00,
2013-08-19 20:11:00,75.2,48.5,30.02,WSW,248,1.5,7.1,39,0.00,,,0.00,WUHU216HW,2013-08-20 02:11:00,
2013-08-19 20:16:00,75.0,48.3,30.03,South,180,3.1,6.0,39,0.00,,,0.00,WUHU216HW,2013-08-20 02:16:00,
2013-08-19 20:21:00,74.6,48.7,30.03,SSW,203,4.4,4.4,40,0.00,,,0.00,WUHU216HW,2013-08-20 02:21:00,
2013-08-19 20:26:00,74.1,48.3,30.03,South,180,0.0,8.7,40,0.00,,,0.00,WUHU216HW,2013-08-20 02:26:00,
2013-08-19 20:31:00,73.9,48.1,30.03,South,180,0.0,8.7,40,0.00,,,0.00,WUHU216HW,2013-08-20 02:31:00,
2013-08-19 20:36:00,73.7,47.9,30.03,SW,225,4.2,4.2,40,0.00,,,0.00,WUHU216HW,2013-08-20 02:36:00,
2013-08-19 20:41:00,73.4,48.2,30.03,WSW,248,0.0,4.2,41,0.00,,,0.00,WUHU216HW,2013-08-20 02:41:00,
2013-08-19 20:46:00,73.0,47.9,30.03,SW,225,3.1,3.3,41,0.00,,,0.00,WUHU216HW,2013-08-20 02:46:00,
2013-08-19 20:51:00,72.6,47.6,30.03,West,270,6.4,6.4,41,0.00,,,0.00,WUHU216HW,2013-08-20 02:51:00,
2013-08-19 20:56:00,72.3,47.2,30.04,WSW,248,7.6,7.6,41,0.00,,,0.00,WUHU216HW,2013-08-20 02:56:00,
2013-08-19 21:01:00,72.1,47.1,30.04,West,270,0.0,7.6,41,0.00,,,0.00,WUHU216HW,2013-08-20 03:01:00,
2013-08-19 21:06:00,72.1,47.1,30.04,WSW,248,0.0,7.6,41,0.00,,,0.00,WUHU216HW,2013-08-20 03:06:00,
2013-08-19 21:11:00,71.7,47.3,30.04,WNW,293,0.0,0.0,42,0.00,,,0.00,WUHU216HW,2013-08-20 03:11:00,
2013-08-19 21:16:00,71.4,47.0,30.04,WNW,293,0.0,0.0,42,0.00,,,0.00,WUHU216HW,2013-08-20 03:16:00,
2013-08-19 21:21:00,71.2,47.4,30.04,SSW,203,0.0,0.0,43,0.00,,,0.00,WUHU216HW,2013-08-20 03:21:00,
2013-08-19 21:26:00,70.3,46.6,30.04,WSW,248,1.1,1.1,43,0.00,,,0.00,WUHU216HW,2013-08-20 03:26:00,
2013-08-19 21:31:00,69.9,46.9,30.05,SSW,203,0.0,2.0,44,0.00,,,0.00,WUHU216HW,2013-08-20 03:31:00,
2013-08-19 21:36:00,69.6,46.6,30.05,SSW,203,0.0,2.0,44,0.00,,,0.00,WUHU216HW,2013-08-20 03:36:00,
2013-08-19 21:41:00,69.0,46.1,30.05,SSW,203,0.0,0.0,44,0.00,,,0.00,WUHU216HW,2013-08-20 03:41:00,
2013-08-19 21:46:00,68.7,46.4,30.06,West,270,0.0,0.0,45,0.00,,,0.00,WUHU216HW,2013-08-20 03:46:00,
2013-08-19 21:51:00,68.3,46.0,30.06,West,270,0.0,0.0,45,0.00,,,0.00,WUHU216HW,2013-08-20 03:51:00,
2013-08-19 21:56:00,67.8,46.2,30.06,WNW,293,0.0,1.7,46,0.00,,,0.00,WUHU216HW,2013-08-20 03:56:00,
2013-08-19 22:01:00,67.4,45.8,30.06,WNW,293,1.1,1.7,46,0.00,,,0.00,WUHU216HW,2013-08-20 04:01:00,
2013-08-19 22:06:00,67.1,46.1,30.06,WSW,248,0.0,4.2,47,0.00,,,0.00,WUHU216HW,2013-08-20 04:06:00,
2013-08-19 22:11:00,66.5,46.2,30.06,NW,315,0.0,4.2,48,0.00,,,0.00,WUHU216HW,2013-08-20 04:11:00,
2013-08-19 22:16:00,66.2,46.5,30.06,West,270,0.0,2.6,49,0.00,,,0.00,WUHU216HW,2013-08-20 04:16:00,
2013-08-19 22:21:00,65.8,46.7,30.06,West,270,0.0,2.6,50,0.00,,,0.00,WUHU216HW,2013-08-20 04:21:00,
2013-08-19 22:26:00,65.1,46.0,30.06,WNW,293,0.0,3.3,50,0.00,,,0.00,WUHU216HW,2013-08-20 04:26:00,
2013-08-19 22:31:00,64.9,45.8,30.06,WNW,293,2.9,3.3,50,0.00,,,0.00,WUHU216HW,2013-08-20 04:31:00,
2013-08-19 22:36:00,64.5,45.9,30.06,NNW,338,0.0,4.2,51,0.00,,,0.00,WUHU216HW,2013-08-20 04:36:00,
2013-08-19 22:41:00,64.2,45.6,30.06,West,270,0.0,4.2,51,0.00,,,0.00,WUHU216HW,2013-08-20 04:41:00,
2013-08-19 22:46:00,63.6,46.1,30.06,West,270,0.0,0.0,53,0.00,,,0.00,WUHU216HW,2013-08-20 04:46:00,
2013-08-19 22:51:00,63.1,46.1,30.06,West,270,0.0,0.0,54,0.00,,,0.00,WUHU216HW,2013-08-20 04:51:00,
2013-08-19 22:57:00,62.4,45.4,30.06,West,270,0.0,0.0,54,0.00,,,0.00,WUHU216HW,2013-08-20 04:57:00,
2013-08-19 23:02:00,61.8,44.9,30.06,West,270,0.0,0.0,54,0.00,,,0.00,WUHU216HW,2013-08-20 05:02:00,
2013-08-19 23:07:00,61.5,44.6,30.06,West,270,0.0,0.0,54,0.00,,,0.00,WUHU216HW,2013-08-20 05:07:00,
2013-08-19 23:12:00,61.1,44.8,30.06,West,270,0.0,0.0,55,0.00,,,0.00,WUHU216HW,2013-08-20 05:12:00,
2013-08-19 23:17:00,60.9,45.1,30.07,West,270,0.0,0.0,56,0.00,,,0.00,WUHU216HW,2013-08-20 05:17:00,
2013-08-19 23:22:00,60.9,44.6,30.07,West,270,0.0,0.0,55,0.00,,,0.00,WUHU216HW,2013-08-20 05:22:00,
2013-08-19 23:27:00,60.6,44.3,30.06,West,270,0.0,0.0,55,0.00,,,0.00,WUHU216HW,2013-08-20 05:27:00,
2013-08-19 23:32:00,60.4,44.6,30.06,West,270,0.0,0.0,56,0.00,,,0.00,WUHU216HW,2013-08-20 05:32:00,
2013-08-19 23:37:00,60.4,45.1,30.06,West,270,0.0,0.0,57,0.00,,,0.00,WUHU216HW,2013-08-20 05:37:00,
2013-08-19 23:42:00,59.9,45.0,30.06,WNW,293,5.5,5.5,58,0.00,,,0.00,WUHU216HW,2013-08-20 05:42:00,
2013-08-19 23:47:00,59.5,44.7,30.07,West,270,0.0,5.5,58,0.00,,,0.00,WUHU216HW,2013-08-20 05:47:00,
2013-08-19 23:52:00,58.8,44.5,30.06,West,270,0.0,5.5,59,0.00,,,0.00,WUHU216HW,2013-08-20 05:52:00,
2013-08-19 23:57:00,58.8,44.5,30.07,WNW,293,3.8,3.8,59,0.00,,,0.00,WUHU216HW,2013-08-20 05:57:00,